This is the latest recevied weather packets stored in our database for station/object NN5DX-12. If no packets are shown the sender has not sent any weather packets the latest 10 day(s).
| Time | Temp. | Humidity | Pressure | Rain* | Wind** | Luminosity | Snow |
|---|---|---|---|---|---|---|---|
| 1778097916 | -2.22° C | 86% | 1019.1 hPa | 0 mm | - | - | - |
| 1778097618 | -2.22° C | 86% | 1019.1 hPa | 0 mm | - | - | - |
| 1778097317 | -2.22° C | 85% | 1019.7 hPa | 0 mm | - | - | - |
| 1778097016 | -2.22° C | 84% | 1019.6 hPa | 0 mm | - | - | - |
| 1778096719 | -2.22° C | 85% | 1019.8 hPa | 0 mm | - | - | - |
| 1778096418 | -2.22° C | 84% | 1019.8 hPa | 0 mm | - | - | - |
| 1778096117 | -2.22° C | 83% | 1019.8 hPa | 0 mm | - | - | - |
| 1778095818 | -1.67° C | 83% | 1019.8 hPa | 0 mm | - | - | - |
| 1778095518 | -1.67° C | 85% | 1019.7 hPa | 0 mm | - | - | - |
| 1778095218 | -2.22° C | 83% | 1019.9 hPa | 0 mm | - | - | - |
| 1778094919 | -2.22° C | 83% | 1019.8 hPa | 0 mm | - | - | - |
| 1778094618 | -1.67° C | 83% | 1019.8 hPa | 0 mm | - | - | - |
| 1778094316 | -1.67° C | 83% | 1019.9 hPa | 0 mm | - | - | - |
| 1778094018 | -1.67° C | 83% | 1019.9 hPa | 0 mm | - | - | - |
| 1778093718 | -1.67° C | 82% | 1020 hPa | 0 mm | - | - | - |
| 1778093418 | -1.67° C | 81% | 1019.8 hPa | 0 mm | - | - | - |
| 1778093117 | -1.11° C | 81% | 1020.6 hPa | 0 mm | - | - | - |
| 1778092818 | -1.11° C | 83% | 1020.6 hPa | 0 mm | - | - | - |
| 1778092519 | -1.67° C | 82% | 1020 hPa | 0 mm | - | - | - |
| 1778092218 | -2.22° C | 81% | 1020.1 hPa | 0 mm | - | - | - |
| 1778091918 | -2.22° C | 83% | 1020.1 hPa | 0 mm | - | - | - |
| 1778091618 | -2.22° C | 83% | 1020.1 hPa | 0 mm | - | - | - |
| 1778091318 | -2.22° C | 83% | 1020.2 hPa | 0 mm | - | - | - |
| 1778091017 | -2.78° C | 85% | 1019.6 hPa | 0 mm | - | - | - |
| 1778090717 | -2.78° C | 84% | 1019.5 hPa | 0 mm | - | - | - |
* Rain latest hour (hover to see other rain measurements)
** Current wind speed in m/s (hover to see current wind gust speed)